Regional Weather Roundup
Issued by NWS

Home | Current Version | Previous Version | Text Only | Print | Product List | Glossary On
Versions: 1 2 3 4 5 6 7 8 9 10 11 12 13 14 15 16 17 18 19 20 21 22 23 24 25 26 27 28 29 30 31 32 33 34 35 36 37 38 39 40 41 42 43 44 45 46 47 48 49 50
000
ASUS45 KABQ 311210
RWRNM
WEATHER ROUNDUP FOR NEW MEXICO
NATIONAL WEATHER SERVICE ALBUQUERQUE NM
500 AM MST SAT JAN 31 2015

NOTE: "FAIR" MEANS FEW OR NO CLOUDS BELOW 12,000 FEET AGL WITH NO
       SIGNIFICANT WEATHER OR OBSTRUCTIONS TO VISION.

      THIS PRODUCT IS RELEASED AS TWO VERSIONS.  ONE VERSION NEAR
      THE TOP OF THE HOUR CONTAINING PRELIMINARY DATA FROM ALBUQUERQUE
      AND OTHER STATIONS.  A FINAL VERSION WITH ADDITIONAL DATA IS
      ISSUED ABOUT 10 MINUTES AFTER THE HOUR.

NMZ501-503-504-510>518-311300-
NORTHWEST PLATEAU/NORTHCENTRAL MOUNTAINS

CITY           SKY/WX    TMP DP  RH WIND       PRES   REMARKS
FARMINGTON     CLOUDY    33  32  96 E5        29.88F WCI  29
6HR MIN TEMP:  32; 6HR MAX TEMP:  34; 6HR PCP:  0.16;

LOS ALAMOS     LGT SNOW  28  28 100 S7        29.93S WCI  21
SANTA FE       LGT SNOW  29  27  92 S6        29.92F FOG     WCI  23
6HR MIN TEMP:  29; 6HR MAX TEMP:  30; 6HR PCP: TRACE;

TAOS           CLOUDY    28  25  86 CALM      29.93F
ANGEL FIRE     PTSUNNY   29  27  95 CALM        N/A

$$
NMZ402-403-502-505>509-311300-
WESTCENTRAL MOUNTAINS/SOUTHWEST MOUNTAINS

CITY           SKY/WX    TMP DP  RH WIND       PRES   REMARKS
GALLUP         CLOUDY    33  31  92 W3        29.88S
6HR MIN TEMP:  32; 6HR MAX TEMP:  33; 6HR PCP:  0.11;

GRANTS         CLOUDY    32  30  94 S7        29.91F WCI  25
SILVER CITY    CLOUDY    39  39 100 SE5       29.91F FOG

$$
NMZ407-409-411-412-311300-
SOUTHERN DESERTS

CITY           SKY/WX    TMP DP  RH WIND       PRES   REMARKS
LORDSBURG      CLOUDY    41  41 100 SE9       29.87F
DEMING         CLOUDY    42  42 100 E7        29.89F
6HR MIN TEMP:  42; 6HR MAX TEMP:  42; 6HR PCP:  0.15;

LAS CRUCES     DRIZZLE   41  40  97 SE8       29.91F
HOLLOMAN AFB   LGT RAIN  41  41 100 CALM      29.91F FOG
ALAMOGORDO     LGT RAIN  41  41 100 NW8       29.94R
T OR C         CLOUDY    40  40 100 CALM      29.90S FOG
6HR MIN TEMP:  40; 6HR MAX TEMP:  41; 6HR PCP:  0.15;


$$
NMZ519>523-311300-
CENTRAL VALLEYS/CENTRAL HIGHLANDS

CITY           SKY/WX    TMP DP  RH WIND       PRES   REMARKS
ALBUQUERQUE    CLOUDY    33  32  96 NW7       29.92F FOG     WCI  27
6HR MIN TEMP:  33; 6HR MAX TEMP:  36; 6HR PCP:  0.05;

MORIARTY ARPT  LGT SNOW  30  28  94 CALM      29.94F
6HR MIN TEMP:  29; 6HR MAX TEMP:  30;

CLINES CORNERS LGT SNOW  27  25  92 E8        29.91  FOG     WCI  19
BELEN          LGT RAIN  33  33 100 NW5       29.93S WCI  28
6HR MIN TEMP:  33; 6HR MAX TEMP:  34;

SOCORRO        LGT RAIN  38  38 100 N6        29.92S WCI  33
6HR MIN TEMP:  38; 6HR MAX TEMP:  40; 6HR PCP:  0.03;


$$
NMZ524>526-539-540-311300-
SOUTHCENTRAL MOUNTAINS

CITY           SKY/WX    TMP DP  RH WIND       PRES   REMARKS
RUIDOSO        FOG       28  28 100 S8        29.95F VSB<1/4 WCI  20

$$
NMZ527>531-311300-
NORTHEAST HIGHLANDS/NORTHEAST PLAINS

CITY           SKY/WX    TMP DP  RH WIND       PRES   REMARKS
LAS VEGAS      CLOUDY    26  24  92 S6        29.93F WCI  19
6HR MIN TEMP:  26; 6HR MAX TEMP:  26; 6HR PCP:  0.02;

RATON          FOG       28  28 100 S7        29.93S VSB 3/4 WCI  21
6HR MIN TEMP:  28; 6HR MAX TEMP:  29; 6HR PCP: TRACE;

CLAYTON        CLOUDY    32  30  92 S15       29.95F WCI  22
6HR MIN TEMP:  32; 6HR MAX TEMP:  33; 6HR PCP:  0.04;


$$
NMZ532>537-311300-
EASTCENTRAL PLAINS

CITY           SKY/WX    TMP DP  RH WIND       PRES   REMARKS
TUCUMCARI      CLOUDY    36  34  92 SE5       29.98F WCI  32
6HR MIN TEMP:  34; 6HR MAX TEMP:  36; 6HR PCP:  0.03;

CANNON AFB     LGT RAIN  33  33  99 E7        29.99F FOG     WCI  27
6HR MIN TEMP:  33; 6HR MAX TEMP:  34; 6HR PCP:  0.08;

CLOVIS AIRPORT CLOUDY    34  30  86 SE6       30.01F WCI  29

$$
NMZ028-029-538-311300-
SOUTHEAST PLAINS

CITY           SKY/WX    TMP DP  RH WIND       PRES   REMARKS
ROSWELL        CLOUDY    38  37  97 CALM      29.99S FOG
6HR MIN TEMP:  37; 6HR MAX TEMP:  39; 6HR PCP:  0.05;

ARTESIA        CLOUDY    39  39 100 CALM      30.00F FOG
CARLSBAD       CLOUDY    41  38  89 NW3       29.98F FOG
6HR MIN TEMP:  39; 6HR MAX TEMP:  41; 6HR PCP:  0.11;

HOBBS          CLOUDY    37  37 100 E12       29.97F FOG     WCI  30


$$


USA.gov is the U.S. government's official web portal to all federal, state and local government web resources and services.